Temp
-10 -10 -10 -11 -11 -11 -11 -12 -12 -13 -13 -14 -14 -14 -14 -14 -14 -15 -15 -15 -16 -16 -16 -16 -16 -16 -15 -15 -15 -15 -15 -15 -15 -15 -15 -15 -15 -15 -15 -15 -15 -15 -15 -15 -15 -15 -15 -15 -15 -15 -15 -15 -15 -15 -14 -14 -13 -13 -12 -12 -12 -11 -11 -11 -11 -11 -11 -11 -11
-10 -10 -11 -11 -11 -11 -12 -12 -13 -13 -13 -14 -14 -14 -14 -15 -15 -15 -15 -15 -15 -16 -16 -16 -16 -16 -15 -15 -15 -15 -15 -15 -16 -16 -16 -15 -15 -15 -15 -15 -15 -15 -15 -15 -15 -15 -15 -15 -15 -15 -15 -15 -15 -14 -14 -13 -13 -13 -12 -12 -12 -12 -11 -11 -11 -11 -11 -11 -11
-10 -11 -11 -11 -11 -12 -12 -13 -13 -13 -13 -13 -14 -14 -14 -15 -15 -15 -15 -15 -15 -15 -15 -16 -16 -15 -15 -15 -15 -15 -16 -16 -16 -16 -16 -15 -15 -15 -15 -15 -15 -15 -15 -15 -15 -15 -15 -15 -15 -15 -15 -15 -14 -14 -13 -13 -13 -12 -12 -12 -12 -12 -12 -12 -12 -12 -12 -12 -11
-10 -11 -11 -11 -11 -12 -12 -13 -13 -13 -13 -13 -14 -14 -14 -14 -15 -15 -15 -15 -15 -15 -15 -15 -15 -15 -15 -15 -15 -15 -15 -15 -15 -15 -15 -15 -15 -15 -15 -15 -15 -15 -15 -15 -15 -15 -15 -15 -15 -15 -15 -15 -14 -13 -13 -13 -13 -12 -12 -12 -12 -12 -12 -12 -12 -12 -12 -12 -11
-11 -11 -11 -11 -12 -12 -13 -13 -13 -13 -13 -13 -13 -14 -14 -14 -14 -15 -15 -15 -15 -15 -15 -15 -15 -15 -15 -15 -15 -15 -15 -15 -15 -15 -15 -15 -15 -15 -15 -15 -15 -15 -15 -15 -15 -15 -15 -15 -15 -15 -15 -14 -14 -13 -13 -13 -12 -12 -12 -12 -12 -12 -12 -12 -13 -13 -12 -12 -11
-10 -11 -11 -11 -12 -12 -12 -13 -13 -13 -13 -13 -13 -14 -14 -14 -14 -15 -15 -15 -15 -15 -15 -15 -15 -15 -15 -15 -15 -15 -15 -15 -15 -15 -15 -15 -15 -15 -15 -15 -15 -15 -15 -15 -15 -14 -14 -15 -15 -15 -14 -14 -13 -13 -12 -12 -12 -12 -12 -12 -12 -12 -12 -12 -13 -13 -12 -12 -11
-10 -10 -11 -11 -12 -12 -12 -13 -13 -13 -13 -13 -14 -14 -14 -14 -14 -15 -15 -15 -15 -15 -15 -15 -15 -15 -15 -15 -15 -15 -15 -15 -15 -15 -15 -15 -15 -15 -15 -15 -15 -15 -15 -14 -14 -14 -14 -14 -14 -14 -14 -13 -13 -12 -12 -12 -12 -12 -12 -12 -12 -12 -12 -12 -13 -12 -12 -11 -10
-10 -10 -11 -11 -12 -12 -12 -13 -13 -13 -13 -14 -14 -14 -14 -14 -14 -15 -15 -15 -15 -15 -15 -15 -15 -15 -15 -15 -15 -15 -15 -15 -14 -14 -14 -15 -15 -15 -15 -15 -14 -14 -14 -14 -14 -14 -14 -14 -14 -13 -13 -13 -12 -12 -12 -12 -12 -12 -12 -12 -12 -12 -12 -12 -12 -12 -11 -11 -10
-10 -10 -11 -12 -12 -13 -13 -13 -13 -13 -14 -14 -14 -14 -14 -14 -14 -15 -15 -15 -15 -15 -15 -15 -15 -15 -15 -15 -14 -14 -14 -14 -14 -14 -14 -14 -14 -14 -14 -14 -14 -14 -14 -14 -14 -14 -13 -13 -13 -12 -12 -12 -12 -12 -12 -11 -11 -11 -11 -12 -12 -12 -12 -12 -12 -11 -11 -10 -9
-10 -11 -12 -12 -12 -13 -13 -13 -13 -14 -14 -14 -14 -14 -14 -14 -14 -14 -14 -15 -15 -15 -15 -15 -15 -15 -14 -14 -14 -14 -14 -14 -14 -14 -14 -14 -14 -14 -14 -14 -14 -13 -13 -13 -13 -13 -13 -12 -12 -12 -12 -12 -12 -11 -11 -11 -11 -11 -11 -12 -12 -12 -11 -11 -11 -10 -10 -9 -9
-11 -12 -12 -13 -13 -13 -13 -14 -14 -14 -14 -14 -14 -14 -14 -14 -14 -14 -14 -14 -14 -15 -15 -15 -14 -14 -14 -14 -14 -14 -14 -14 -14 -14 -13 -13 -13 -13 -13 -13 -13 -13 -12 -12 -12 -12 -12 -12 -12 -12 -12 -12 -12 -12 -11 -11 -11 -11 -11 -12 -11 -11 -11 -10 -10 -10 -9 -9 -9
-12 -12 -13 -13 -13 -13 -14 -14 -14 -14 -14 -14 -14 -14 -14 -13 -14 -14 -14 -14 -14 -14 -14 -14 -14 -14 -14 -14 -14 -14 -14 -14 -13 -13 -13 -13 -13 -13 -13 -12 -12 -12 -11 -11 -11 -11 -11 -11 -12 -12 -12 -12 -12 -12 -11 -11 -11 -11 -11 -11 -11 -11 -10 -10 -9 -9 -9 -10 -10
-12 -13 -13 -13 -14 -14 -14 -15 -15 -14 -14 -14 -14 -14 -14 -13 -14 -14 -14 -14 -14 -14 -14 -14 -14 -14 -14 -14 -14 -14 -14 -13 -13 -12 -12 -12 -13 -13 -12 -12 -12 -12 -11 -12 -12 -12 -12 -12 -12 -12 -12 -12 -12 -12 -11 -11 -11 -11 -11 -10 -10 -10 -9 -9 -9 -9 -10 -10 -10
-13 -13 -13 -14 -14 -14 -15 -15 -15 -14 -14 -14 -14 -14 -14 -13 -13 -14 -14 -14 -14 -14 -14 -14 -14 -14 -14 -14 -13 -13 -13 -13 -12 -12 -12 -12 -12 -12 -12 -12 -12 -12 -12 -12 -12 -12 -12 -12 -12 -12 -12 -12 -12 -11 -11 -11 -11 -10 -10 -10 -9 -9 -9 -9 -9 -10 -10 -10 -10
-13 -13 -13 -14 -14 -15 -15 -15 -15 -15 -14 -14 -14 -14 -13 -13 -13 -13 -14 -14 -14 -14 -14 -14 -14 -13 -13 -13 -13 -13 -12 -12 -12 -11 -12 -12 -12 -12 -12 -13 -13 -13 -13 -12 -12 -12 -12 -12 -12 -12 -12 -12 -11 -11 -11 -10 -10 -10 -9 -9 -9 -9 -9 -9 -10 -10 -10 -10 -10
-13 -13 -14 -14 -15 -15 -15 -15 -15 -15 -14 -14 -13 -13 -13 -13 -13 -13 -13 -14 -14 -14 -14 -14 -13 -13 -13 -13 -12 -12 -12 -11 -11 -11 -12 -12 -12 -13 -13 -13 -13 -12 -12 -11 -11 -11 -11 -11 -11 -11 -11 -11 -10 -10 -10 -10 -9 -9 -9 -9 -9 -9 -9 -9 -9 -9 -9 -9 -9
-13 -13 -14 -14 -15 -15 -15 -15 -15 -14 -14 -14 -13 -13 -13 -13 -13 -13 -13 -14 -14 -14 -14 -13 -13 -13 -13 -12 -12 -12 -12 -11 -11 -11 -11 -12 -12 -13 -13 -12 -12 -11 -10 -10 -10 -10 -10 -10 -10 -10 -10 -10 -10 -9 -9 -9 -9 -9 -9 -9 -9 -9 -9 -9 -9 -9 -9 -9 -9
-13 -13 -14 -14 -15 -15 -15 -15 -15 -14 -14 -13 -13 -13 -13 -13 -13 -13 -13 -13 -13 -13 -13 -13 -13 -13 -12 -12 -12 -12 -11 -11 -11 -11 -11 -12 -12 -12 -12 -11 -10 -10 -10 -9 -9 -9 -10 -10 -10 -9 -9 -9 -9 -9 -9 -9 -9 -9 -9 -9 -9 -9 -9 -9 -9 -9 -9 -9 -9
-13 -13 -14 -14 -15 -15 -15 -15 -14 -14 -14 -13 -13 -13 -13 -13 -13 -13 -13 -13 -13 -13 -13 -13 -13 -12 -12 -12 -12 -11 -11 -11 -11 -11 -11 -11 -11 -11 -11 -10 -10 -10 -10 -9 -9 -9 -9 -9 -9 -9 -9 -9 -9 -9 -9 -9 -9 -9 -9 -9 -9 -9 -8 -8 -8 -8 -8 -8 -8
-13 -14 -14 -15 -15 -15 -15 -15 -15 -14 -14 -13 -13 -13 -12 -12 -13 -13 -13 -13 -13 -13 -13 -13 -12 -12 -12 -12 -11 -11 -11 -11 -11 -11 -11 -10 -10 -10 -10 -9 -10 -10 -10 -10 -9 -9 -9 -9 -9 -9 -10 -10 -10 -9 -9 -9 -9 -9 -9 -9 -9 -8 -8 -8 -8 -8 -8 -8 -8
-13 -14 -14 -15 -15 -15 -15 -15 -14 -14 -13 -13 -13 -12 -12 -12 -12 -13 -13 -13 -13 -13 -12 -12 -12 -12 -12 -12 -11 -11 -11 -11 -11 -11 -11 -10 -10 -10 -9 -9 -9 -10 -10 -10 -10 -10 -9 -9 -10 -10 -10 -9 -9 -9 -9 -9 -9 -9 -9 -9 -9 -9 -8 -8 -8 -8 -8 -8 -8
-14 -14 -14 -15 -15 -15 -15 -15 -14 -13 -13 -13 -12 -12 -12 -12 -12 -13 -13 -13 -13 -12 -12 -12 -12 -12 -12 -11 -11 -11 -11 -11 -11 -11 -11 -11 -10 -10 -10 -9 -9 -9 -9 -10 -10 -10 -9 -9 -9 -9 -9 -9 -9 -9 -9 -9 -9 -9 -9 -9 -9 -9 -9 -9 -9 -9 -9 -9 -8
-14 -14 -14 -15 -15 -15 -15 -14 -13 -13 -13 -12 -12 -12 -12 -12 -12 -13 -13 -13 -13 -12 -12 -12 -12 -12 -11 -11 -11 -11 -11 -11 -11 -11 -11 -11 -10 -10 -10 -10 -9 -9 -9 -9 -10 -10 -9 -9 -9 -9 -9 -9 -9 -9 -9 -9 -9 -9 -9 -9 -9 -9 -9 -9 -9 -9 -9 -9 -9
-14 -14 -14 -15 -15 -15 -14 -14 -13 -13 -12 -12 -12 -12 -12 -12 -12 -13 -13 -13 -13 -12 -12 -12 -12 -12 -11 -11 -11 -11 -11 -11 -11 -11 -11 -11 -11 -10 -10 -10 -10 -9 -9 -9 -9 -10 -10 -10 -9 -9 -9 -9 -9 -9 -9 -9 -9 -9 -9 -9 -9 -9 -9 -9 -9 -9 -9 -9 -9
-14 -14 -14 -15 -15 -14 -14 -13 -13 -13 -12 -12 -12 -12 -12 -12 -13 -13 -13 -13 -12 -12 -12 -12 -12 -11 -11 -11 -11 -11 -11 -11 -11 -11 -11 -11 -11 -11 -11 -10 -10 -10 -10 -9 -9 -10 -10 -10 -10 -9 -9 -9 -9 -9 -9 -9 -9 -9 -9 -9 -9 -9 -9 -9 -9 -9 -9 -9 -9
-14 -14 -14 -14 -14 -14 -13 -13 -13 -13 -12 -12 -12 -12 -12 -12 -12 -13 -13 -12 -12 -12 -12 -12 -12 -12 -11 -11 -11 -11 -11 -11 -11 -11 -11 -11 -11 -11 -11 -11 -11 -11 -10 -10 -10 -10 -10 -10 -10 -10 -10 -9 -9 -9 -9 -9 -9 -9 -10 -10 -10 -10 -10 -9 -9 -9 -9 -9 -9
-14 -14 -14 -14 -14 -13 -13 -13 -13 -13 -12 -12 -12 -12 -12 -12 -12 -12 -12 -12 -12 -12 -12 -12 -12 -12 -11 -11 -11 -11 -10 -10 -11 -11 -11 -11 -11 -11 -11 -11 -11 -11 -10 -10 -10 -10 -10 -10 -10 -10 -10 -10 -10 -10 -10 -10 -10 -10 -10 -10 -10 -10 -10 -10 -10 -10 -10 -9 -10
-14 -14 -14 -14 -13 -13 -13 -13 -13 -13 -13 -12 -12 -12 -12 -12 -12 -12 -12 -12 -12 -12 -12 -12 -12 -12 -11 -11 -11 -11 -11 -10 -10 -11 -11 -11 -11 -11 -11 -11 -11 -11 -11 -10 -10 -11 -11 -10 -10 -10 -10 -10 -10 -10 -10 -10 -10 -10 -10 -10 -10 -10 -10 -10 -10 -10 -10 -10 -10
-14 -14 -14 -14 -13 -13 -13 -13 -13 -13 -13 -12 -12 -12 -12 -12 -12 -12 -12 -12 -12 -12 -12 -12 -12 -12 -12 -11 -11 -11 -11 -10 -10 -10 -11 -11 -11 -11 -11 -11 -11 -11 -11 -10 -10 -10 -10 -10 -10 -10 -10 -10 -10 -10 -10 -10 -10 -10 -10 -10 -10 -10 -10 -10 -10 -10 -10 -10 -10
-14 -14 -14 -14 -13 -13 -13 -13 -13 -13 -12 -12 -12 -12 -12 -12 -12 -12 -12 -12 -12 -12 -12 -12 -12 -12 -12 -11 -11 -11 -11 -11 -10 -10 -11 -11 -11 -11 -10 -10 -10 -11 -11 -10 -10 -10 -10 -10 -10 -10 -10 -10 -10 -10 -10 -10 -10 -10 -10 -10 -10 -10 -10 -10 -10 -10 -10 -10 -10
-14 -14 -14 -14 -13 -13 -13 -13 -13 -13 -12 -12 -12 -12 -12 -12 -12 -12 -12 -12 -12 -12 -12 -12 -12 -12 -12 -11 -11 -11 -11 -11 -11 -10 -11 -11 -11 -11 -11 -10 -10 -10 -11 -11 -10 -10 -10 -10 -10 -10 -10 -10 -10 -11 -11 -11 -11 -11 -11 -11 -11 -11 -10 -10 -10 -10 -10 -10 -10
-14 -14 -14 -14 -13 -13 -13 -13 -13 -12 -12 -12 -12 -12 -12 -12 -12 -12 -12 -12 -12 -12 -12 -12 -12 -12 -12 -11 -11 -11 -11 -11 -11 -11 -11 -11 -11 -11 -11 -10 -10 -10 -10 -11 -11 -10 -10 -11 -11 -11 -11 -11 -11 -11 -11 -11 -11 -11 -11 -11 -11 -11 -11 -11 -10 -10 -10 -10 -10
-14 -14 -14 -14 -13 -13 -13 -13 -13 -12 -12 -12 -12 -12 -12 -12 -12 -12 -12 -12 -12 -12 -12 -12 -12 -12 -12 -12 -11 -11 -11 -11 -11 -11 -11 -10 -10 -11 -11 -11 -10 -10 -10 -11 -11 -11 -10 -11 -11 -11 -11 -11 -11 -11 -11 -11 -11 -11 -11 -11 -11 -11 -11 -11 -11 -11 -10 -10 -10
-14 -14 -14 -14 -13 -13 -13 -13 -13 -12 -12 -12 -12 -12 -12 -12 -12 -12 -11 -12 -12 -12 -12 -12 -12 -12 -12 -12 -11 -11 -11 -11 -11 -11 -11 -11 -10 -10 -11 -11 -11 -10 -10 -10 -11 -11 -11 -11 -11 -11 -11 -11 -11 -11 -11 -11 -11 -11 -11 -11 -11 -11 -11 -11 -11 -11 -11 -11 -11
-13 -14 -14 -14 -14 -13 -13 -13 -13 -12 -12 -12 -12 -12 -12 -12 -12 -12 -12 -12 -12 -12 -11 -11 -11 -11 -12 -12 -11 -11 -11 -11 -11 -11 -11 -11 -11 -10 -10 -10 -11 -10 -10 -10 -10 -11 -11 -11 -11 -11 -11 -11 -11 -11 -11 -11 -11 -11 -11 -11 -11 -11 -11 -11 -11 -11 -11 -11 -11
-13 -13 -14 -14 -14 -13 -13 -13 -12 -12 -12 -12 -12 -12 -12 -12 -12 -12 -12 -12 -11 -11 -11 -11 -11 -11 -11 -11 -11 -11 -11 -11 -11 -11 -11 -11 -11 -11 -10 -10 -10 -11 -10 -10 -11 -11 -11 -11 -11 -11 -11 -11 -11 -11 -11 -11 -11 -11 -11 -11 -11 -11 -11 -11 -11 -11 -11 -11 -12
-13 -13 -13 -13 -13 -13 -13 -13 -12 -12 -12 -12 -12 -12 -12 -12 -12 -12 -12 -12 -12 -11 -11 -11 -11 -11 -11 -11 -11 -11 -11 -11 -11 -11 -11 -11 -11 -11 -11 -11 -10 -11 -11 -11 -11 -11 -11 -11 -11 -11 -11 -11 -11 -11 -11 -11 -11 -11 -11 -11 -11 -11 -11 -11 -11 -11 -11 -12 -12
-13 -13 -13 -13 -13 -13 -13 -13 -12 -12 -12 -12 -12 -12 -12 -12 -12 -12 -12 -12 -12 -12 -12 -12 -12 -12 -12 -12 -11 -11 -11 -11 -11 -11 -11 -11 -11 -11 -11 -11 -10 -10 -11 -11 -11 -11 -11 -11 -11 -11 -11 -11 -11 -11 -12 -12 -11 -11 -11 -11 -11 -11 -11 -11 -11 -11 -12 -12 -12
-12 -13 -13 -13 -13 -13 -13 -13 -12 -12 -12 -12 -12 -12 -12 -12 -12 -12 -12 -12 -12 -12 -12 -12 -12 -12 -12 -12 -12 -12 -11 -11 -11 -11 -11 -11 -11 -11 -11 -11 -11 -11 -11 -11 -11 -11 -11 -11 -11 -11 -11 -11 -12 -12 -12 -12 -12 -12 -12 -12 -12 -12 -12 -12 -12 -12 -12 -12 -12
-12 -13 -13 -13 -13 -13 -13 -12 -12 -12 -12 -12 -12 -11 -12 -12 -12 -12 -12 -12 -12 -12 -12 -12 -12 -12 -12 -12 -12 -12 -12 -11 -11 -11 -11 -11 -11 -11 -11 -11 -11 -11 -11 -11 -11 -11 -11 -11 -11 -11 -11 -12 -12 -12 -12 -12 -12 -12 -12 -12 -12 -12 -12 -12 -12 -12 -12 -12 -12
-12 -12 -13 -13 -13 -13 -13 -12 -12 -12 -12 -12 -12 -11 -12 -12 -12 -12 -12 -12 -12 -12 -12 -12 -12 -12 -12 -12 -12 -12 -12 -12 -12 -12 -12 -12 -11 -11 -11 -11 -11 -11 -11 -11 -11 -11 -11 -11 -11 -11 -11 -12 -12 -12 -12 -12 -12 -12 -12 -12 -12 -12 -12 -12 -12 -12 -12 -12 -12
Height
1531 1529 1527 1525 1523 1521 1519 1517 1516 1514 1512 1510 1509 1507 1505 1503 1501 1500 1498 1496 1494 1492 1490 1488 1487 1485 1483 1481 1480 1479 1477 1475 1473 1471 1469 1467 1465 1463 1461 1460 1458 1457 1455 1454 1453 1451 1450 1449 1448 1446 1445 1444 1443 1442 1441 1440 1440 1439 1438 1438 1437 1436 1436 1435 1434 1434 1433 1433 1433
1531 1529 1527 1525 1523 1521 1519 1517 1516 1514 1512 1511 1509 1507 1505 1503 1501 1500 1497 1496 1494 1492 1491 1489 1487 1485 1483 1481 1480 1478 1476 1474 1471 1469 1467 1465 1463 1461 1460 1458 1456 1455 1454 1453 1451 1450 1449 1447 1446 1445 1444 1443 1441 1441 1440 1439 1439 1438 1437 1436 1436 1435 1435 1434 1433 1433 1432 1432 1431
1530 1528 1526 1525 1523 1521 1519 1517 1516 1514 1512 1511 1509 1507 1505 1503 1501 1500 1498 1496 1494 1493 1491 1489 1486 1485 1483 1481 1480 1478 1475 1473 1470 1468 1466 1464 1462 1460 1459 1457 1455 1454 1452 1451 1450 1449 1447 1446 1445 1444 1442 1441 1440 1439 1438 1437 1437 1437 1436 1435 1435 1434 1434 1433 1432 1432 1431 1430 1430
1530 1528 1526 1524 1522 1521 1519 1517 1516 1514 1512 1511 1509 1507 1506 1504 1502 1500 1498 1496 1494 1493 1491 1489 1487 1485 1483 1481 1479 1476 1474 1472 1470 1467 1465 1463 1461 1459 1457 1456 1454 1452 1451 1450 1448 1447 1446 1445 1443 1442 1441 1440 1439 1438 1437 1436 1436 1435 1435 1434 1434 1433 1433 1432 1431 1431 1430 1429 1428
1529 1528 1526 1524 1522 1521 1519 1517 1516 1514 1512 1511 1509 1507 1506 1504 1502 1500 1498 1496 1494 1493 1491 1489 1487 1486 1483 1481 1478 1476 1473 1471 1469 1466 1464 1462 1460 1458 1456 1454 1452 1451 1449 1448 1446 1445 1444 1443 1442 1441 1439 1438 1437 1436 1436 1435 1435 1434 1433 1433 1433 1432 1432 1431 1430 1429 1428 1427 1426
1529 1527 1526 1524 1522 1521 1519 1517 1516 1514 1512 1511 1509 1507 1505 1504 1502 1500 1498 1496 1495 1493 1491 1489 1487 1485 1483 1480 1477 1475 1472 1470 1468 1466 1463 1461 1458 1456 1454 1453 1451 1449 1448 1446 1445 1444 1442 1441 1440 1439 1438 1437 1436 1435 1434 1434 1433 1433 1432 1432 1431 1431 1430 1430 1428 1428 1427 1426 1425
1529 1527 1525 1523 1522 1520 1519 1517 1516 1514 1512 1510 1509 1507 1505 1503 1502 1500 1498 1496 1495 1493 1491 1489 1487 1485 1482 1479 1476 1474 1471 1469 1466 1464 1462 1460 1457 1455 1453 1451 1449 1448 1446 1444 1443 1442 1441 1440 1439 1437 1436 1436 1434 1433 1433 1433 1432 1431 1431 1430 1430 1429 1429 1428 1427 1426 1426 1425 1424
1529 1527 1525 1523 1522 1520 1519 1517 1515 1513 1512 1510 1509 1507 1505 1503 1502 1500 1498 1496 1495 1493 1491 1489 1486 1484 1481 1479 1476 1473 1470 1468 1465 1463 1460 1458 1456 1453 1451 1449 1447 1446 1444 1443 1441 1440 1439 1438 1437 1436 1435 1434 1433 1432 1431 1431 1431 1430 1429 1429 1428 1428 1427 1426 1426 1425 1425 1424 1424
1528 1526 1525 1523 1521 1520 1518 1517 1515 1513 1512 1510 1509 1507 1505 1504 1502 1500 1498 1497 1495 1494 1491 1489 1486 1483 1481 1478 1475 1472 1470 1467 1464 1461 1459 1457 1454 1452 1450 1448 1446 1444 1442 1441 1440 1438 1437 1436 1435 1434 1433 1432 1431 1431 1430 1430 1429 1429 1428 1427 1426 1426 1426 1425 1425 1425 1424 1424 1424
1528 1526 1524 1523 1521 1520 1518 1516 1515 1513 1512 1510 1509 1507 1506 1504 1502 1501 1499 1497 1496 1493 1491 1488 1485 1482 1480 1477 1474 1472 1469 1466 1463 1461 1458 1455 1453 1451 1448 1446 1444 1442 1441 1439 1438 1436 1435 1434 1433 1432 1431 1431 1430 1429 1429 1428 1428 1427 1426 1426 1425 1425 1425 1424 1424 1424 1424 1424 1423
1528 1526 1524 1523 1521 1520 1518 1516 1515 1513 1512 1511 1509 1507 1506 1504 1502 1501 1499 1497 1496 1493 1491 1488 1485 1482 1479 1477 1474 1471 1468 1465 1462 1460 1457 1454 1452 1449 1447 1445 1443 1441 1439 1437 1436 1434 1433 1431 1431 1430 1429 1429 1428 1427 1427 1426 1426 1426 1425 1425 1424 1424 1424 1424 1424 1424 1424 1423 1423
1528 1526 1524 1523 1521 1520 1518 1516 1515 1513 1512 1511 1509 1507 1506 1504 1502 1501 1499 1497 1495 1492 1490 1487 1485 1482 1479 1476 1473 1471 1467 1464 1461 1458 1455 1452 1450 1448 1446 1444 1441 1439 1437 1435 1434 1432 1431 1429 1428 1427 1427 1427 1426 1426 1426 1425 1425 1424 1424 1424 1424 1424 1424 1424 1424 1424 1423 1423 1422
1528 1526 1524 1523 1521 1520 1518 1516 1515 1513 1512 1511 1509 1507 1506 1504 1503 1501 1499 1497 1495 1492 1490 1487 1484 1482 1479 1476 1473 1470 1467 1464 1460 1457 1454 1451 1448 1446 1444 1441 1439 1437 1435 1432 1431 1429 1428 1426 1425 1425 1424 1424 1424 1424 1424 1424 1424 1423 1423 1424 1424 1424 1424 1424 1424 1423 1423 1423 1422
1528 1526 1524 1523 1521 1520 1518 1516 1515 1514 1512 1511 1509 1508 1506 1504 1503 1501 1499 1497 1494 1492 1489 1487 1484 1482 1479 1476 1473 1470 1467 1463 1460 1456 1452 1449 1447 1444 1442 1439 1436 1434 1431 1428 1426 1425 1423 1422 1422 1422 1422 1422 1422 1423 1423 1423 1423 1423 1423 1424 1424 1424 1424 1424 1423 1423 1423 1423 1423
1528 1526 1525 1523 1521 1520 1518 1517 1516 1514 1512 1511 1510 1508 1506 1505 1503 1501 1499 1496 1494 1492 1490 1487 1484 1481 1479 1476 1473 1470 1467 1463 1459 1455 1451 1448 1445 1442 1439 1436 1433 1430 1426 1423 1421 1420 1419 1419 1420 1420 1421 1421 1421 1421 1422 1422 1423 1424 1424 1424 1424 1424 1424 1424 1424 1424 1424 1424 1424
1528 1526 1525 1523 1522 1520 1519 1517 1516 1514 1513 1511 1510 1508 1506 1505 1503 1501 1499 1496 1494 1492 1490 1487 1484 1481 1478 1476 1473 1470 1466 1463 1459 1455 1451 1446 1443 1439 1436 1432 1429 1426 1423 1420 1418 1417 1417 1417 1418 1419 1420 1420 1421 1421 1422 1423 1424 1424 1425 1425 1425 1425 1425 1425 1424 1424 1425 1425 1425
1528 1526 1525 1523 1522 1521 1519 1518 1516 1514 1513 1511 1510 1509 1507 1505 1503 1501 1499 1497 1495 1492 1489 1487 1484 1481 1479 1476 1473 1470 1467 1463 1459 1455 1450 1446 1442 1438 1435 1431 1428 1425 1423 1421 1418 1417 1417 1417 1418 1419 1420 1421 1422 1423 1424 1424 1425 1425 1425 1425 1426 1426 1426 1426 1426 1426 1426 1426 1425
1528 1527 1525 1524 1522 1521 1519 1518 1516 1515 1513 1512 1511 1509 1507 1506 1504 1501 1500 1497 1495 1492 1490 1487 1485 1482 1479 1476 1474 1471 1468 1464 1461 1456 1451 1446 1443 1440 1436 1433 1430 1428 1426 1423 1421 1420 1420 1420 1420 1421 1422 1423 1424 1425 1425 1425 1425 1425 1426 1426 1427 1427 1427 1427 1427 1427 1427 1426 1426
1529 1527 1525 1524 1522 1521 1520 1518 1516 1515 1514 1512 1511 1510 1508 1506 1504 1502 1500 1498 1496 1493 1490 1487 1485 1482 1480 1477 1474 1472 1469 1466 1462 1458 1453 1449 1445 1442 1439 1437 1435 1433 1430 1426 1424 1423 1423 1423 1423 1424 1425 1425 1426 1426 1426 1426 1426 1427 1427 1428 1428 1429 1429 1428 1428 1428 1427 1426 1425
1529 1527 1525 1524 1522 1521 1520 1518 1517 1516 1514 1513 1511 1510 1508 1506 1504 1502 1500 1498 1496 1493 1491 1488 1485 1483 1480 1478 1475 1472 1470 1467 1464 1460 1456 1451 1448 1445 1443 1441 1440 1438 1435 1430 1427 1426 1426 1426 1426 1426 1427 1427 1427 1427 1428 1428 1428 1429 1429 1430 1429 1429 1429 1429 1428 1428 1427 1426 1425
1529 1527 1526 1524 1523 1521 1520 1519 1517 1516 1515 1513 1512 1510 1508 1507 1505 1503 1501 1499 1496 1494 1491 1488 1486 1483 1481 1479 1476 1473 1471 1468 1466 1463 1459 1455 1451 1449 1446 1445 1445 1443 1440 1435 1432 1431 1430 1429 1429 1429 1429 1429 1429 1430 1430 1430 1430 1431 1431 1431 1430 1430 1430 1430 1429 1428 1427 1426 1426
1529 1528 1526 1524 1523 1522 1521 1519 1518 1517 1515 1514 1512 1511 1509 1507 1505 1503 1501 1499 1497 1494 1491 1489 1486 1484 1482 1480 1477 1475 1472 1470 1468 1465 1461 1458 1455 1453 1450 1448 1448 1447 1445 1441 1438 1437 1436 1434 1433 1433 1433 1432 1432 1432 1432 1433 1433 1432 1432 1432 1432 1431 1431 1431 1430 1429 1428 1427 1426
1530 1528 1526 1525 1524 1522 1521 1520 1519 1517 1516 1514 1512 1511 1509 1507 1506 1504 1501 1499 1497 1494 1492 1489 1487 1486 1483 1481 1479 1476 1474 1471 1469 1466 1463 1461 1458 1456 1453 1451 1450 1450 1449 1446 1444 1443 1441 1440 1438 1437 1436 1436 1436 1436 1436 1435 1435 1435 1434 1434 1433 1433 1432 1432 1431 1430 1429 1428 1427
1530 1528 1526 1525 1524 1523 1521 1520 1519 1517 1516 1514 1513 1511 1510 1508 1506 1504 1502 1500 1497 1495 1492 1490 1488 1486 1484 1482 1480 1477 1475 1473 1470 1467 1465 1462 1460 1458 1456 1454 1453 1453 1452 1451 1449 1447 1446 1444 1443 1442 1441 1440 1439 1439 1438 1438 1437 1437 1436 1436 1435 1434 1433 1433 1432 1431 1430 1428 1427
1530 1528 1527 1525 1524 1523 1522 1521 1519 1518 1516 1515 1513 1512 1510 1508 1506 1504 1502 1500 1498 1495 1493 1491 1489 1487 1485 1483 1481 1479 1477 1475 1472 1469 1466 1464 1462 1461 1459 1457 1456 1455 1455 1454 1452 1451 1449 1448 1446 1445 1444 1443 1442 1441 1440 1440 1439 1438 1437 1436 1436 1435 1434 1433 1432 1431 1430 1429 1428
1530 1528 1527 1526 1525 1523 1522 1521 1520 1518 1517 1515 1514 1512 1510 1508 1506 1505 1502 1501 1498 1496 1494 1492 1490 1488 1486 1484 1482 1480 1478 1476 1474 1471 1469 1466 1465 1463 1461 1459 1459 1458 1458 1456 1455 1454 1452 1450 1449 1447 1446 1445 1444 1443 1441 1441 1440 1439 1438 1437 1436 1435 1434 1433 1432 1431 1430 1429 1428
1530 1529 1527 1526 1525 1524 1523 1521 1520 1519 1517 1516 1514 1512 1511 1509 1507 1505 1503 1501 1499 1497 1495 1493 1491 1490 1488 1486 1484 1482 1480 1478 1475 1473 1471 1469 1467 1465 1464 1462 1461 1461 1461 1459 1457 1456 1454 1452 1451 1449 1448 1447 1446 1444 1443 1442 1441 1440 1439 1438 1436 1436 1434 1433 1432 1431 1430 1429 1428
1531 1529 1528 1526 1525 1524 1523 1522 1521 1519 1517 1516 1514 1513 1511 1509 1507 1505 1503 1501 1499 1497 1496 1494 1492 1491 1489 1487 1485 1483 1481 1479 1477 1475 1473 1471 1469 1468 1466 1464 1464 1464 1464 1461 1459 1457 1456 1454 1452 1451 1450 1448 1447 1446 1445 1443 1442 1441 1440 1439 1437 1436 1435 1434 1432 1431 1430 1429 1428
1531 1530 1528 1527 1526 1524 1523 1522 1521 1519 1518 1516 1515 1513 1511 1510 1508 1506 1504 1502 1500 1498 1496 1495 1494 1492 1491 1489 1487 1485 1483 1481 1479 1477 1475 1473 1471 1469 1468 1467 1466 1466 1466 1463 1461 1459 1457 1456 1454 1453 1451 1450 1448 1447 1446 1445 1443 1442 1441 1440 1438 1437 1436 1435 1433 1432 1430 1429 1428
1531 1530 1529 1527 1526 1525 1523 1522 1521 1520 1518 1517 1515 1513 1511 1510 1508 1506 1504 1502 1501 1499 1498 1496 1495 1493 1492 1490 1488 1486 1485 1483 1481 1479 1477 1475 1473 1471 1470 1468 1467 1468 1467 1465 1463 1461 1459 1457 1456 1454 1452 1451 1450 1448 1447 1446 1445 1443 1442 1441 1440 1438 1437 1436 1434 1433 1431 1430 1429
1532 1530 1529 1527 1526 1525 1524 1522 1521 1520 1518 1517 1515 1514 1512 1510 1508 1506 1505 1503 1501 1500 1499 1497 1496 1494 1493 1491 1490 1488 1486 1484 1482 1481 1479 1477 1475 1473 1471 1470 1469 1469 1469 1466 1464 1462 1461 1459 1457 1456 1454 1452 1451 1449 1448 1446 1446 1444 1443 1442 1441 1439 1438 1436 1435 1434 1432 1431 1430
1532 1531 1529 1528 1526 1525 1524 1523 1521 1520 1519 1517 1516 1514 1512 1511 1509 1507 1506 1504 1502 1501 1499 1498 1496 1495 1493 1492 1490 1489 1487 1485 1484 1482 1481 1479 1477 1475 1473 1471 1469 1470 1470 1467 1465 1464 1462 1460 1459 1457 1455 1454 1452 1450 1449 1448 1446 1445 1444 1443 1441 1440 1439 1437 1436 1434 1433 1431 1431
1532 1531 1529 1528 1526 1525 1524 1523 1521 1520 1519 1517 1516 1514 1513 1511 1509 1508 1506 1504 1503 1501 1500 1498 1497 1495 1494 1492 1491 1489 1488 1486 1485 1484 1482 1481 1479 1477 1475 1473 1470 1471 1471 1469 1466 1465 1463 1461 1460 1458 1456 1455 1453 1451 1450 1448 1447 1446 1445 1443 1442 1441 1440 1438 1437 1435 1434 1432 1431
1532 1531 1529 1528 1526 1525 1524 1523 1521 1520 1519 1517 1516 1515 1513 1511 1510 1508 1506 1505 1503 1502 1501 1499 1498 1496 1495 1494 1492 1491 1489 1487 1486 1485 1483 1482 1480 1478 1476 1475 1472 1471 1471 1471 1467 1465 1464 1462 1461 1459 1458 1456 1454 1452 1451 1449 1448 1446 1445 1444 1443 1441 1440 1439 1437 1436 1434 1433 1431
1532 1531 1529 1528 1527 1526 1524 1523 1521 1520 1519 1517 1516 1515 1513 1512 1510 1508 1507 1505 1504 1503 1501 1500 1499 1497 1496 1495 1493 1491 1490 1488 1487 1486 1484 1483 1481 1479 1478 1476 1474 1472 1471 1472 1469 1466 1465 1463 1461 1460 1458 1456 1454 1453 1451 1450 1448 1447 1446 1445 1443 1442 1441 1439 1438 1436 1435 1434 1432
1532 1531 1529 1528 1527 1526 1524 1523 1521 1520 1519 1517 1516 1515 1514 1512 1511 1509 1507 1506 1505 1503 1501 1500 1499 1497 1496 1495 1493 1492 1491 1489 1488 1486 1485 1484 1482 1480 1479 1477 1475 1473 1472 1472 1470 1467 1465 1464 1462 1461 1459 1457 1455 1453 1452 1450 1449 1448 1446 1445 1444 1442 1441 1440 1438 1437 1436 1434 1432
1533 1531 1530 1528 1527 1526 1524 1523 1521 1520 1519 1517 1516 1515 1514 1512 1511 1509 1508 1506 1505 1503 1502 1500 1499 1498 1496 1495 1494 1493 1491 1490 1489 1487 1486 1484 1483 1481 1480 1478 1476 1474 1472 1472 1471 1469 1466 1464 1462 1461 1460 1458 1456 1454 1452 1451 1450 1448 1447 1446 1445 1443 1442 1441 1439 1437 1436 1434 1433
1533 1531 1530 1529 1527 1526 1524 1523 1521 1520 1519 1517 1516 1515 1514 1512 1511 1510 1508 1506 1505 1503 1502 1501 1499 1498 1496 1496 1494 1493 1492 1491 1490 1488 1486 1485 1483 1482 1481 1479 1477 1475 1473 1472 1471 1470 1468 1465 1463 1461 1460 1459 1457 1455 1454 1452 1451 1449 1448 1446 1446 1444 1443 1441 1440 1438 1436 1434 1433
1533 1532 1531 1529 1527 1526 1524 1522 1521 1520 1518 1517 1516 1515 1514 1513 1511 1510 1508 1507 1506 1504 1502 1501 1500 1498 1497 1496 1495 1494 1493 1491 1490 1489 1487 1486 1484 1483 1481 1480 1478 1476 1474 1473 1472 1471 1469 1467 1464 1462 1461 1459 1458 1456 1455 1453 1452 1450 1449 1447 1446 1444 1443 1441 1440 1438 1436 1435 1433
1534 1532 1531 1529 1527 1526 1524 1522 1521 1520 1518 1517 1516 1515 1514 1513 1511 1510 1509 1508 1506 1505 1503 1502 1500 1499 1497 1496 1495 1494 1493 1491 1491 1489 1488 1486 1485 1484 1482 1481 1479 1477 1476 1474 1473 1471 1470 1468 1466 1463 1461 1460 1458 1457 1456 1454 1453 1451 1449 1448 1446 1445 1443 1441 1440 1438 1436 1434 1433
1534 1532 1531 1529 1528 1526 1524 1522 1521 1519 1518 1517 1516 1515 1514 1513 1512 1511 1509 1508 1506 1505 1504 1502 1501 1500 1498 1496 1495 1494 1492 1491 1491 1489 1488 1487 1486 1484 1483 1481 1480 1478 1476 1475 1473 1473 1471 1470 1468 1465 1462 1460 1459 1458 1456 1455 1453 1451 1450 1448 1446 1445 1443 1441 1440 1438 1436 1434 1433
Wind_Speed
38 37 37 35 34 32 31 30 29 28 28 27 27 28 28 29 29 29 30 30 30 31 31 31 32 32 32 33 33 33 33 34 34 33 33 32 32 32 31 30 30 29 29 29 29 29 28 28 27 27 26 25 25 24 23 21 19 17 15 15 17 19 20 20 20 20 21 22 22
37 36 35 33 31 30 29 28 27 27 26 26 26 26 27 28 29 30 30 31 31 31 31 32 32 33 33 33 33 33 34 34 34 33 33 33 33 33 32 31 31 30 29 29 29 29 28 27 27 27 26 25 25 24 23 20 18 17 17 18 19 21 22 22 22 22 23 23 23
35 34 33 31 29 28 27 26 26 25 25 25 25 26 28 29 29 30 30 31 31 31 31 32 32 32 32 32 33 33 34 34 34 34 34 35 35 34 34 33 32 31 30 29 29 28 27 27 27 26 26 26 26 25 23 20 19 19 20 21 21 22 23 24 24 24 24 24 23
33 32 30 29 27 26 25 25 25 24 24 25 25 27 28 29 30 30 30 30 31 31 31 31 32 31 31 32 34 35 35 35 34 35 36 36 36 35 34 33 32 31 30 29 28 28 27 27 27 27 27 27 27 26 24 22 21 22 22 22 23 23 24 24 24 24 23 24 22
31 29 28 27 26 26 25 24 24 24 24 25 27 28 29 29 29 29 30 30 30 31 31 31 31 32 32 35 36 37 37 37 36 36 37 37 37 36 35 34 32 31 30 29 28 27 27 27 27 28 28 28 28 27 26 24 23 23 23 23 24 24 25 25 24 24 23 23 21
28 27 27 27 26 25 24 23 23 23 24 26 27 28 28 28 28 29 29 29 30 31 31 31 32 33 35 38 38 39 39 39 38 38 38 37 37 36 35 34 32 31 30 29 29 28 28 28 28 28 28 29 29 28 26 25 24 23 24 25 25 26 26 25 24 23 22 21 18
27 27 27 27 26 25 24 23 23 23 25 26 27 28 28 28 28 29 29 30 31 31 31 32 34 36 38 40 40 40 40 39 39 39 38 38 37 36 35 34 33 32 31 30 29 29 29 29 29 29 29 28 28 27 26 24 24 25 26 27 27 26 25 23 22 21 20 18 15
27 27 27 27 26 24 23 23 23 24 26 26 27 27 27 27 28 29 30 31 31 32 33 33 36 39 40 40 39 40 40 39 39 39 38 38 38 37 36 35 34 33 32 31 30 30 29 29 29 29 29 28 27 27 26 25 26 28 29 29 27 25 23 21 20 18 17 15 12
27 28 27 26 24 23 22 23 24 25 26 26 26 26 26 27 28 29 30 31 32 33 35 35 38 39 39 39 39 39 39 38 39 39 38 38 37 37 37 36 35 34 33 32 31 31 30 29 29 29 28 28 28 27 27 27 29 30 30 28 25 22 20 18 17 15 13 11 11
27 27 26 25 23 22 22 23 25 25 26 26 25 25 26 27 28 30 31 33 34 35 36 37 39 39 39 38 38 38 37 38 38 39 39 38 37 37 37 37 36 35 34 33 32 31 31 30 30 29 29 29 29 29 29 29 30 30 27 24 21 18 17 15 13 11 10 10 12
27 26 25 24 23 23 23 25 26 26 26 25 25 25 26 28 29 31 33 34 35 37 37 38 39 38 38 37 36 36 36 37 38 38 39 38 38 37 37 36 36 35 34 33 32 32 32 32 32 32 31 31 31 31 30 30 28 26 22 19 16 15 13 11 8 8 10 12 14
26 25 24 23 23 24 25 26 27 26 26 25 25 25 26 28 30 32 34 35 37 38 38 38 38 37 37 36 35 36 36 37 38 38 39 39 38 37 37 36 36 35 34 34 34 33 34 34 34 33 32 31 30 29 28 26 23 20 17 13 12 10 9 8 8 11 13 16 16
25 24 24 24 24 25 26 27 27 27 26 25 25 26 27 28 30 32 34 36 38 38 38 38 37 36 35 35 35 35 37 38 39 39 40 40 39 39 39 38 38 38 38 37 37 36 36 35 34 32 30 28 25 23 21 18 15 13 11 8 7 6 8 11 14 16 17 18 17
24 24 24 25 25 26 27 27 27 27 26 25 25 25 27 28 30 32 35 37 38 39 38 37 36 35 34 34 35 36 37 38 39 40 41 41 41 42 42 43 43 43 43 42 39 37 35 33 31 28 24 20 16 13 11 9 7 6 5 5 8 11 15 18 20 21 20 19 18
24 24 25 25 26 26 27 28 28 27 25 24 24 25 26 28 30 33 35 38 39 39 38 37 36 34 34 33 34 35 37 38 39 40 42 43 45 46 47 47 48 47 46 42 37 32 28 25 22 18 14 10 7 4 2 1 1 2 6 10 15 19 22 23 23 23 22 21 20
25 25 25 25 26 27 27 28 27 26 25 24 24 24 26 28 30 33 36 38 39 38 37 36 34 34 33 33 34 35 36 38 39 42 45 48 50 51 51 51 50 47 42 36 29 23 18 13 10 8 6 4 5 5 5 5 7 10 14 18 22 23 23 23 23 23 22 22 22
25 25 25 26 26 27 27 27 27 26 25 24 23 24 26 28 31 34 36 37 38 37 36 34 33 33 33 33 34 35 36 38 41 44 48 52 53 53 53 53 49 44 37 30 24 20 16 13 11 10 10 11 12 12 13 14 17 20 23 24 23 22 20 20 20 19 19 20 22
25 25 25 26 26 27 27 26 26 25 24 23 23 24 25 28 31 34 36 36 36 35 34 33 32 32 32 33 34 35 36 39 42 47 51 54 54 54 53 50 47 43 38 34 29 25 20 18 17 17 18 19 19 21 22 25 26 27 27 25 23 20 17 15 13 12 13 15 17
25 25 26 26 26 26 26 25 25 24 24 23 23 24 25 28 31 33 35 35 34 33 32 31 31 31 32 33 33 35 37 39 43 47 50 53 54 53 51 47 45 43 40 38 35 31 27 26 25 25 25 26 27 28 29 30 29 27 25 23 20 17 14 11 10 9 9 10 12
26 26 26 26 26 26 25 25 24 24 23 23 23 24 26 28 30 33 34 34 33 31 30 30 31 31 32 33 34 35 37 39 42 45 48 50 52 52 48 45 43 41 39 38 38 36 34 33 32 32 32 32 32 32 31 29 27 24 21 18 16 14 12 10 9 9 9 9 10
26 26 25 25 25 25 25 24 23 23 23 23 23 25 26 28 30 32 33 33 31 29 29 29 30 31 32 33 34 35 37 39 41 43 46 47 49 49 47 43 41 40 39 38 39 38 37 37 36 35 34 33 32 31 29 27 24 22 20 17 16 14 13 12 11 11 11 12 12
26 25 25 25 25 24 23 23 23 23 23 23 24 25 27 28 30 32 32 31 29 28 28 29 30 31 32 34 34 35 36 37 40 42 43 44 46 46 46 44 41 40 39 38 37 37 37 36 35 34 32 31 29 28 26 25 23 22 21 19 18 17 16 15 14 14 14 14 15
25 25 25 24 24 23 23 23 22 22 23 23 24 25 27 29 30 31 31 29 27 27 28 29 30 31 33 34 34 34 35 36 38 40 42 42 43 44 44 44 43 41 39 37 35 34 33 32 31 30 29 28 27 25 24 23 23 22 21 20 19 18 17 16 16 15 15 16 16
25 25 24 24 23 23 23 22 22 23 23 24 25 26 27 29 30 31 30 28 27 27 28 29 30 32 33 34 34 33 34 35 38 40 41 41 41 42 42 43 43 41 39 36 33 31 30 29 29 28 27 26 25 24 23 22 21 21 20 19 19 18 17 17 16 16 16 17 18
26 25 25 24 23 23 23 23 23 23 24 24 25 26 27 29 30 30 29 27 27 27 28 29 30 32 34 34 34 33 32 34 37 39 39 39 40 40 41 41 41 39 37 34 32 29 28 27 26 26 25 25 24 23 22 21 20 20 19 19 19 19 19 18 18 18 18 18 19
26 26 25 24 23 23 23 23 23 24 24 24 25 26 28 29 30 29 28 27 27 27 28 28 30 32 33 34 34 32 32 33 35 37 38 38 38 38 39 39 39 36 34 31 30 28 26 25 24 24 24 23 22 21 21 20 20 19 19 19 20 20 21 21 21 22 21 21 20
26 26 25 24 23 23 23 23 23 23 24 24 25 26 27 28 29 28 27 26 26 27 27 28 29 31 32 34 33 32 31 32 34 36 36 36 36 36 36 37 36 35 32 30 29 27 26 24 24 23 23 22 21 20 20 19 19 19 19 19 19 20 21 23 24 25 25 24 24
26 25 25 23 23 22 22 22 23 23 24 24 25 26 27 28 28 27 26 26 26 26 26 27 28 29 31 33 33 32 30 30 32 34 35 35 34 34 34 34 34 33 31 30 29 28 26 25 24 23 22 21 21 20 19 18 18 17 18 18 19 20 21 23 24 26 27 27 27
25 25 24 24 22 22 22 22 23 23 23 24 24 25 26 27 27 27 26 25 25 25 25 25 26 27 29 31 32 31 30 29 30 32 33 34 33 33 32 32 32 31 30 31 31 29 28 26 25 24 23 22 21 20 19 18 17 16 16 17 18 19 20 22 23 25 26 28 28
24 24 24 23 22 21 21 22 22 22 22 23 23 24 25 26 27 26 25 24 24 24 24 23 24 26 27 29 31 31 30 29 29 29 31 32 33 33 31 30 30 29 29 30 32 32 30 29 27 26 24 23 22 21 20 19 18 16 16 15 16 17 18 19 21 23 25 26 27
24 24 23 22 21 21 21 21 21 21 21 21 22 24 25 26 26 26 25 24 23 22 22 22 23 24 26 28 29 30 30 29 28 28 29 30 32 32 31 30 30 28 27 29 31 33 33 32 30 29 27 26 25 24 23 22 20 18 16 15 15 15 16 17 18 20 22 24 25
23 23 23 22 21 20 20 20 20 20 20 20 21 23 24 25 25 25 24 23 22 21 21 22 22 23 25 27 28 29 29 29 28 27 27 28 29 31 31 31 30 28 26 26 29 32 33 33 33 32 30 29 28 27 26 25 23 21 19 17 16 15 15 16 16 17 19 21 23
23 23 23 22 21 20 20 19 19 19 19 19 20 22 23 24 24 24 24 23 22 21 21 21 22 23 24 25 27 27 28 28 28 27 26 26 27 29 30 31 31 29 26 25 27 30 32 33 33 33 33 32 30 29 28 27 26 25 23 21 19 18 17 16 16 16 16 17 21
23 23 23 23 22 21 20 19 18 18 18 18 19 21 22 23 23 24 24 23 22 21 20 20 20 21 22 23 25 26 26 26 27 27 26 26 26 26 28 30 31 30 29 27 26 28 31 32 33 34 34 33 33 32 31 29 28 28 26 25 23 22 20 19 18 17 16 16 18
23 23 24 24 23 23 21 19 18 17 17 18 19 20 21 22 22 23 23 23 22 20 19 19 19 20 21 22 23 24 24 25 25 26 26 26 26 26 26 27 29 31 32 31 28 27 29 31 32 33 34 34 34 34 33 32 31 30 28 27 26 25 24 23 22 21 19 17 17
24 24 24 24 25 24 22 20 18 17 17 17 18 19 21 21 22 22 22 22 21 20 19 19 19 19 20 20 21 22 23 23 24 24 25 26 26 26 26 26 27 29 31 32 31 28 28 30 31 32 33 34 34 34 34 33 32 31 30 29 28 27 26 26 25 24 22 20 19
24 24 25 25 25 25 23 20 18 17 17 17 18 19 20 21 21 21 21 21 21 21 20 19 19 19 19 20 20 20 21 21 22 22 23 24 25 25 26 25 26 27 28 30 32 30 28 28 31 32 33 34 34 34 34 34 33 32 31 31 30 29 28 28 27 27 25 24 22
24 24 25 25 26 26 24 21 19 18 17 17 17 18 19 20 21 20 20 20 20 21 21 20 19 19 19 19 19 19 19 19 20 21 22 23 24 24 25 25 25 25 26 27 30 31 30 28 30 32 33 33 34 34 34 34 34 33 32 32 31 31 30 30 29 29 28 27 25
24 24 25 25 26 26 25 23 20 18 17 16 16 17 18 20 20 20 19 18 19 20 21 20 20 19 19 18 18 18 18 18 18 19 20 21 22 23 23 24 24 24 24 25 27 29 30 30 29 31 32 33 33 33 33 33 33 33 33 32 32 32 31 31 31 30 30 29 28
24 24 24 25 25 26 25 24 21 19 17 16 15 16 17 19 19 19 18 17 17 19 20 21 20 19 19 18 18 18 17 17 17 17 18 19 20 21 22 22 22 23 23 23 24 26 28 30 30 30 30 32 32 33 32 33 33 33 33 33 32 32 32 32 31 31 31 31 30
23 24 24 25 25 25 25 24 23 20 17 15 14 14 15 17 18 19 18 17 16 18 20 21 21 20 19 18 18 18 18 17 17 17 17 18 19 19 20 21 21 21 21 22 22 23 25 27 28 29 29 29 31 32 32 32 32 33 33 33 33 32 32 32 32 32 31 31 31
Wind_Direction
337 337 337 337 337 337 338 339 341 342 343 344 346 348 348 349 349 348 347 347 344 341 339 338 336 335 334 334 333 330 327 325 324 323 324 324 325 325 324 323 321 319 317 316 316 316 316 316 316 315 314 313 312 310 309 310 313 316 318 318 318 320 323 325 324 323 323 321 317
338 338 338 338 338 339 341 343 345 345 345 347 349 351 352 352 351 349 348 347 345 342 339 337 336 335 334 333 331 329 328 328 328 329 329 329 329 329 327 325 323 321 319 318 317 316 316 316 315 314 313 312 310 310 310 312 317 319 320 320 322 323 323 323 321 320 318 315 312
339 339 339 340 341 343 346 348 348 348 348 349 352 355 356 355 353 351 348 347 345 343 341 339 337 335 333 332 331 332 333 333 333 332 331 331 330 330 328 326 324 323 321 319 318 316 316 316 315 313 311 310 311 311 313 316 320 320 320 322 323 322 320 318 316 314 312 309 306
340 341 341 343 345 348 350 352 352 351 351 353 356 358 358 357 355 353 350 349 347 345 343 341 338 335 334 334 336 337 338 337 333 332 332 331 330 329 328 327 325 324 322 321 319 318 317 317 316 313 312 311 312 313 315 316 319 320 321 322 322 320 317 314 312 308 305 304 302
342 343 344 346 349 351 352 353 354 354 355 357 359 360 359 358 356 355 352 349 347 346 345 342 339 337 337 339 340 340 339 337 334 333 332 331 330 329 328 327 326 325 324 323 322 321 320 319 316 314 313 313 313 313 313 315 318 320 322 321 320 318 315 312 309 306 303 301 299
344 345 347 349 351 352 353 354 355 356 357 359 0 0 359 359 358 356 353 351 349 348 346 342 340 340 341 343 342 340 338 336 334 333 331 329 329 329 328 328 327 326 326 326 325 324 323 320 317 314 313 313 313 313 313 315 318 321 322 321 319 318 316 314 311 306 303 300 299
346 348 350 351 352 353 354 355 356 358 360 1 1 1 0 1 360 358 356 354 351 348 345 342 342 343 344 343 341 339 337 335 334 333 331 329 329 328 328 328 328 328 328 328 327 326 324 321 318 315 314 314 314 314 315 317 320 321 321 321 320 318 317 314 310 305 302 301 301
349 350 351 352 352 353 355 356 358 360 1 2 1 2 2 2 0 358 356 354 350 347 345 343 344 345 344 342 339 338 337 335 334 332 331 330 330 329 329 329 328 328 328 328 327 326 324 322 319 318 318 318 317 317 318 319 321 321 321 321 320 318 315 312 307 303 302 303 304
351 352 352 353 353 355 357 359 1 2 2 2 2 3 4 3 0 358 356 353 349 347 346 344 345 345 344 341 341 339 337 335 334 333 332 331 331 331 330 330 329 328 328 328 327 326 324 323 321 321 321 320 319 318 318 319 320 321 321 320 319 316 311 306 303 302 304 308 311
353 354 354 355 356 358 360 2 3 3 2 2 4 6 6 3 1 358 355 351 349 348 348 347 346 345 344 343 342 340 338 336 336 335 335 334 333 333 333 332 331 330 330 329 329 327 325 323 322 321 319 318 317 316 316 316 318 319 319 318 315 310 303 299 300 305 313 321 329
356 357 358 359 360 2 3 4 3 3 3 3 5 6 6 4 0 358 355 353 352 351 350 349 348 347 345 344 342 340 338 338 338 338 338 337 337 337 336 335 334 333 332 331 329 327 324 321 319 317 316 315 314 313 313 314 315 316 315 313 307 300 297 299 312 327 338 346 352
360 0 1 3 4 6 6 5 3 3 3 4 5 5 4 2 360 357 356 355 355 353 352 351 350 348 346 344 342 341 340 340 341 341 340 339 339 338 338 337 336 335 332 329 326 322 319 316 314 313 313 312 312 311 311 312 313 313 310 304 297 298 309 332 354 5 10 14 14
3 4 5 7 9 9 8 5 3 3 3 4 4 4 2 0 359 358 357 357 357 355 353 352 351 350 347 346 344 343 343 344 344 343 341 339 338 337 336 336 335 333 330 326 323 319 316 314 313 313 313 313 312 310 309 310 310 308 304 301 311 338 5 21 31 36 36 32 27
6 8 9 11 11 10 8 5 3 2 3 4 4 2 0 359 359 359 360 359 358 356 354 353 352 350 349 349 348 347 347 347 347 345 343 341 339 338 337 335 334 332 329 327 325 322 319 317 317 318 319 319 316 313 309 307 302 301 312 347 16 33 43 50 53 52 48 41 33
9 10 11 12 11 10 7 5 2 1 2 3 3 1 360 359 359 0 1 1 360 357 355 353 352 352 352 353 352 351 350 350 349 347 344 342 341 340 338 336 334 332 331 331 331 331 329 327 327 328 330 330 332 333 328 299 303 12 29 37 48 57 62 63 60 56 50 44 37
10 11 11 12 11 9 7 4 1 1 1 3 2 1 360 359 360 2 3 2 0 357 355 354 353 354 355 356 355 354 353 353 351 349 347 345 344 343 341 340 339 340 341 343 348 354 359 2 5 10 22 47 75 90 94 89 71 55 53 59 66 70 68 64 59 54 49 44 39
11 11 11 11 10 8 5 3 1 1 2 3 2 1 0 360 1 2 3 3 0 357 355 354 355 357 358 359 358 357 356 356 355 353 352 351 349 348 349 351 355 360 6 15 24 34 44 57 69 77 82 86 87 84 78 71 64 62 63 67 71 72 69 64 59 54 48 43 38
10 10 10 11 9 7 4 2 1 2 3 3 2 1 0 0 1 3 3 3 360 357 355 356 358 1 2 1 1 1 1 1 360 360 0 359 358 358 1 7 16 25 35 45 53 58 63 71 77 80 81 80 77 74 70 68 66 65 65 66 67 69 71 70 66 58 49 41 37
9 9 10 10 8 5 3 2 2 4 5 4 3 1 1 1 1 2 2 1 358 357 357 359 2 5 5 5 5 5 6 6 6 7 9 9 8 9 14 23 31 40 49 59 64 67 70 73 75 77 76 74 72 71 70 69 68 67 66 67 69 72 77 79 74 64 52 41 35
8 9 10 10 7 4 2 2 4 6 6 5 4 2 1 0 0 1 1 359 358 359 2 4 6 8 8 9 9 10 10 10 11 13 16 17 17 18 23 31 38 44 54 66 71 73 75 77 78 78 76 75 74 73 73 73 73 73 74 77 79 80 79 74 66 55 45 36 32
9 9 10 10 7 4 3 5 7 8 8 7 5 3 1 0 360 359 359 359 360 4 8 10 11 11 11 12 12 13 13 14 16 18 21 23 23 24 27 33 38 43 51 64 71 75 78 79 80 80 79 78 78 78 79 80 81 82 83 83 81 77 73 67 60 53 46 40 35
9 10 11 10 8 6 6 8 11 11 10 8 5 3 1 360 359 358 358 360 4 9 13 14 14 15 15 14 15 15 16 17 20 24 26 26 27 27 28 31 35 39 44 53 62 69 73 76 78 79 79 79 80 80 80 81 81 80 79 77 75 72 70 66 61 56 51 46 41
11 12 12 12 10 9 10 13 14 14 12 9 6 4 2 0 359 358 359 3 9 15 17 16 17 17 17 17 17 17 17 19 24 28 30 30 30 30 30 30 31 34 37 41 47 53 59 63 67 70 72 73 73 72 71 71 70 69 69 68 68 67 65 63 59 55 51 47 43
12 14 14 13 12 13 15 17 17 15 13 10 8 5 3 1 359 360 2 8 14 18 19 18 18 19 19 19 19 19 19 21 26 30 32 33 32 32 32 31 30 30 32 34 37 40 44 47 50 54 57 60 60 59 59 58 57 57 57 57 56 56 55 54 53 51 49 46 42
14 15 15 15 14 16 18 19 18 16 14 11 8 6 4 2 1 2 6 12 17 20 20 19 19 20 20 21 21 21 22 24 27 31 33 34 34 34 34 34 31 29 28 29 32 34 34 35 37 39 42 45 47 47 46 46 46 45 45 45 44 42 41 41 42 43 45 43 41
15 16 16 16 17 18 20 20 18 16 14 11 9 6 5 3 3 5 9 14 18 20 20 19 19 20 20 21 22 23 24 26 29 32 34 35 35 35 37 37 34 30 27 26 28 30 29 28 29 30 31 33 35 37 38 39 39 38 38 37 36 35 33 32 32 34 37 38 38
15 16 16 16 18 19 20 19 17 15 13 11 9 7 5 4 5 8 11 16 19 20 20 20 19 19 19 20 22 23 24 27 30 32 35 36 38 39 40 39 37 32 28 27 28 29 27 25 24 24 24 25 26 29 32 34 35 35 35 36 35 34 32 31 29 29 30 31 32
15 15 15 16 17 19 20 18 16 14 12 10 8 7 5 5 6 9 13 17 19 19 19 19 19 18 19 20 22 23 24 26 29 32 34 36 38 40 42 42 40 35 30 29 30 30 29 26 25 23 22 21 22 23 25 27 28 30 32 34 35 35 34 33 30 29 28 27 26
14 13 13 14 16 18 18 16 14 12 10 9 7 6 6 6 7 10 13 17 19 18 17 17 18 18 18 19 21 23 24 26 28 31 33 35 36 38 41 44 44 39 33 30 31 32 32 31 29 28 26 24 23 22 21 20 20 22 25 29 32 34 34 33 31 30 29 27 24
13 12 11 12 14 16 16 14 11 10 9 7 7 6 6 6 8 10 13 16 17 17 16 16 17 17 17 18 20 22 24 25 27 29 32 33 34 35 38 42 44 41 35 31 32 34 35 35 34 33 31 30 28 26 24 20 17 15 16 19 23 26 28 29 29 30 31 29 25
12 10 10 10 12 14 14 11 9 8 7 7 6 6 6 6 7 9 11 14 15 16 16 16 16 17 17 17 19 21 22 24 25 27 29 31 32 33 34 37 40 39 35 32 31 33 35 36 36 35 35 34 33 31 29 26 22 17 14 12 14 17 20 22 24 27 30 30 27
11 9 8 9 10 11 11 9 7 6 5 5 5 5 5 5 6 7 9 11 13 14 14 15 15 16 16 16 17 19 21 23 24 25 27 30 31 32 33 34 35 35 33 30 29 30 32 34 35 35 35 35 35 34 33 31 28 25 21 17 14 13 14 16 18 21 26 28 28
10 9 8 8 9 9 8 6 4 3 3 3 5 5 4 4 4 6 8 10 11 11 11 12 13 14 14 14 15 16 18 20 21 23 24 27 29 31 32 32 32 31 30 29 28 27 27 30 31 33 33 34 35 34 34 32 31 29 27 24 20 17 15 14 14 15 18 23 28
11 10 10 9 9 8 5 2 360 359 360 1 3 4 3 2 2 4 6 8 8 8 8 9 11 13 13 13 13 14 16 17 19 20 22 24 26 28 30 30 30 29 28 30 29 25 23 25 27 29 30 32 32 33 33 32 31 30 28 27 24 22 20 17 14 12 12 16 25
12 11 11 10 9 7 2 358 355 355 356 358 1 2 2 1 1 2 4 5 5 5 4 6 8 10 12 12 13 13 14 15 16 17 19 20 22 24 26 27 28 28 28 28 28 25 21 21 23 24 26 28 29 30 30 30 30 29 28 27 25 24 23 21 18 15 13 14 23
14 13 12 11 9 5 1 356 352 351 352 355 358 0 0 359 359 0 2 3 3 2 1 1 3 5 8 10 11 12 12 12 13 14 15 17 18 20 22 23 25 26 27 26 25 24 22 19 19 20 22 24 26 27 27 27 27 27 26 25 25 24 23 22 21 19 17 18 24
15 14 13 10 7 4 0 355 350 348 348 351 355 358 359 358 358 359 0 2 2 2 360 358 358 359 2 5 7 9 9 10 10 11 12 13 14 16 16 17 19 23 25 23 22 22 23 19 17 17 18 20 22 24 24 23 23 23 23 23 22 22 22 22 22 21 21 21 25
16 14 12 9 6 3 360 356 352 347 346 347 351 355 357 356 356 357 359 1 2 2 360 357 355 354 355 357 360 2 5 7 8 9 10 11 11 12 12 12 14 18 21 20 20 20 20 20 17 14 14 15 18 20 21 21 20 20 19 19 18 18 18 19 20 20 21 22 23
16 14 11 8 5 2 360 357 353 349 345 343 346 351 354 355 355 355 357 360 3 4 2 359 355 352 351 350 351 354 357 1 5 6 7 8 9 8 8 8 11 15 19 19 17 16 16 18 17 13 11 11 13 16 18 18 18 17 17 16 15 15 15 16 17 18 19 20 21
15 13 11 8 5 3 0 358 356 352 346 342 342 347 352 353 352 352 353 357 3 6 6 4 360 355 351 348 346 346 349 353 358 2 4 5 5 5 4 5 7 12 18 21 17 13 13 14 15 13 10 8 9 11 13 15 16 16 15 14 13 12 12 12 14 15 16 17 18
15 13 11 9 6 3 1 360 358 355 350 345 342 345 348 350 349 349 350 354 360 5 8 7 5 2 357 353 349 346 344 346 350 354 358 0 1 1 1 1 3 8 15 21 21 16 12 12 13 13 11 8 7 7 8 11 13 14 14 13 12 10 10 10 11 12 14 14 15